User: anonymous   Login
Location: Brunsen
(51.8651°N, 9.8610°E)
Time: 12:21:06
(UTC+00:00)
Language:

Meteor 1-4 Rocket - Orbit

View from above orbital plane
View from above orbital plane
View from above satellite
View from above satellite

Ground track
Ground track

The orbit data is extracted from the following two-line orbital elements,

1  4394U 70037B   24199.14606848  .00067058  00000-0  55253-3 0  9998
2  4394  81.2250 187.1768 0017379 192.6828 167.3995 15.69911033961465
Epoch (UTC): 17 July 2024 03:30:20
Eccentricity: 0.0017379
inclination: 81.2250°
perigee height: 347 km
apogee height: 371 km
right ascension of ascending node: 187.1768°
argument of perigee: 192.6828°
revolutions per day: 15.69911033
mean anomaly at epoch: 167.3995°
orbit number at epoch: 96146

The dashed part of the orbit path shows where the satellite is in the earth's shadow,  

DLR